• Processing (Info)

  • MPEC 2023-N19 : 2023 NB

    The following Minor Planet Electronic Circular may be linked-to from your own Web pages, but must not otherwise be redistributed electronically.

    A form allowing access to any MPEC is at the bottom of this page.


    Read MPEC 2023-N18 Read MPEC 2023-N20


    M.P.E.C. 2023-N19                                  Issued 2023 July 7, 11:21 UT
    
         The Minor Planet Electronic Circulars contain information on unusual
             minor planets, routine data on comets and natural satellites,
             and occasional editorial announcements.  They are published
        on behalf of Division F of the International Astronomical Union by the
              Minor Planet Center, Smithsonian Astrophysical Observatory,
                              Cambridge, MA 02138, U.S.A.
    			  
                 Prepared using the Tamkin Foundation Computer Network
    
                                  MPC@CFA.HARVARD.EDU
                URL https://www.minorplanetcenter.net/    ISSN 1523-6714
    
                                     2023 NB                                 
    
    
    Observations:
         K23N00B 1C2023 06 30.25720 15 18 45.54 +31 31 22.7                VEN019G96
         K23N00B 1C2023 06 30.26247 15 18 47.72 +31 30 53.1                VEN019G96
         K23N00B 1C2023 06 30.26773 15 18 49.92 +31 30 24.2          20.2 GVEN019G96
         K23N00B*1C2023 07 06.28813116 12 09.544+18 44 50.24         20.10GVEN019G96
         K23N00B 1C2023 07 06.29377016 12 12.820+18 43 52.07         20.16GVEN019G96
         K23N00B 1C2023 07 06.29941516 12 16.168+18 42 53.24         20.42GVEN019G96
         K23N00B 1C2023 07 06.30506016 12 19.436+18 41 55.57         19.85GVEN019G96
         K23N00B KC2023 07 06.34921016 12 45.680+18 34 15.56         20.10GVEN019I52
         K23N00B KC2023 07 06.35072516 12 46.570+18 33 59.87         19.80GVEN019I52
         K23N00B KC2023 07 06.35224616 12 47.462+18 33 43.74         20.09GVEN019I52
         K23N00B KC2023 07 06.75800 16 17 12.506+17 24 45.40         19.7 GXEN019L87
         K23N00B KC2023 07 06.76675 16 17 17.717+17 23 12.84         19.7 GXEN019L87
         K23N00B KC2023 07 06.77552 16 17 22.925+17 21 39.89         19.6 GXEN019L87
         K23N00B KC2023 07 06.92864 16 18 55.25 +16 51 59.9                VEN019204
         K23N00B KC2023 07 06.92917716 18 56.638+16 51 45.50         19.5 GVEN019J95
         K23N00B KC2023 07 06.93342516 18 57.63 +16 51 07.9          19.6 GVEN019L01
         K23N00B KC2023 07 06.93426 16 18 57.03 +16 53 09.0          20.0 VZEN019M49
         K23N00B KC2023 07 06.93540316 18 58.87 +16 50 45.6          19.7 GVEN019L01
         K23N00B KC2023 07 06.93598416 19 00.809+16 50 31.67         19.5 GVEN019J95
         K23N00B KC2023 07 06.93737816 19 00.06 +16 50 23.7          19.3 GVEN019L01
         K23N00B KC2023 07 06.93994216 19 01.60 +16 49 55.9          20.0 GVEN019L01
         K23N00B KC2023 07 06.94276916 19 03.34 +16 49 25.2          19.7 GVEN019L01
         K23N00B HC2023 07 06.94499 16 19 05.15 +16 49 00.9                VEN019204
         K23N00B KC2023 07 06.94721816 19 07.675+16 48 28.40         19.6 GVEN019J95
         K23N00B KC2023 07 06.95526 16 19 09.69 +16 49 18.2          20.0 VZEN019M49
         K23N00B HC2023 07 06.96134 16 19 15.15 +16 46 02.6          19.8 GVEN019204
         K23N00B KC2023 07 06.97612 16 19 22.34 +16 45 28.9          19.7 VZEN019M49
         K23N00B KB2023 07 07.12766 16 21 06.68 +16 15 57.0          19.9 rZEN019H36
         K23N00B KB2023 07 07.13762 16 21 12.75 +16 14 06.5          19.5 rZEN019H36
         K23N00B KB2023 07 07.14662 16 21 18.20 +16 12 27.4          19.7 rZEN019H36
         K23N00B  C2023 07 07.25906416 22 28.906+15 51 46.99         19.9 GVEN019654
         K23N00B  C2023 07 07.26316216 22 31.417+15 51 01.17         19.9 GVEN019654
         K23N00B KC2023 07 07.29514 16 22 51.811+15 44 48.44         20.4 GVEN019U52
         K23N00B KC2023 07 07.30352 16 22 56.818+15 43 14.05         19.4 GVEN019U52
    
    Observer details:
    204 Schiaparelli Observatory.  Observer L. Buzzi.  0.84-m f/3.5 reflector +
        CCD.
    654 Table Mountain Observatory, Wrightwood-PHMC.  Observers N. Evans, P. Choi,
        N. Saini, C. Zhai, R. Trahan, M. Shao.  1.0-m Reflector + CCD.
    G96 Mt. Lemmon Survey.  Observers K. W. Wierzchos, G. J. Leonard.  Measurers
        B. Gray, D. Rankin, F. C. Shelly, E. J. Christensen, D. Fay, J. B.
        Fazekas, D. C. Fuls, A. R. Gibbs, A. D. Grauer, H. Groeller, J. K. Hogan,
        R. A. Kowalski, S. M. Larson, G. J. Leonard, R. L. Seaman, A. Serrano, K.
        W. Wierzchos.  1.5-m reflector + 10K CCD.
    H36 Sandlot Observatory, Scranton.  Observer G. Hug.  0.56-m f/4.2 .56 meter
        reflector + CMO.
    I52 Steward Observatory, Mt. Lemmon Station.  Observer K. W. Wierzchos.
        Measurers E. J. Christensen, D. Fay, J. B. Fazekas, D. C. Fuls, A. R.
        Gibbs, A. D. Grauer, H. Groeller, J. K. Hogan, R. A. Kowalski, S. M.
        Larson, G. J. Leonard, D. Rankin, R. L. Seaman, A. Serrano, F. C. Shelly,
        K. W. Wierzchos.  1.0-m prime focus + CCD.
    J95 Great Shefford.  Observer P. Birtwhistle.  0.41-m f/6.3 Schmidt-Cassegrain
        + CCD.
    L01 Visnjan Observatory, Tican.  Observers K. Korlevic, L. Poropat.  Measurer
        K. Korlevic.  1.0-m f/2.9 reflector + CCD.
    L87 Moonbase South Observatory, Hakos.  Observer G. Duszanowicz.  Measurer J.
        Camarasa.  0.36-m f/7.7 reflector + CCD.
    M49 IAS Remote Observatory, Hakos.  Observers D. Husar, M. Junius.  Measurer
        D. Husar.  0.25-m f/4.6 reflector + CCD.
    U52 Shasta Valley Observatory, Grenada.  Observers J. E. Rogers, B. Haeusler.
        Measurers J. E. Rogers, D. Parrott.  0.30-m f/5.2 0.30-m Helin Telescope +
        CCD.
    
    Orbital elements:
    2023 NB                                                  Earth MOID = 0.0580 AU
    Epoch 2023 Feb. 25.0 TT = JDT 2460000.5                 Veres                   
    M 323.01422              (2000.0)            P               Q                  
    n   0.31092220     Peri.  153.55889     -0.03985365     +0.98088268             
    a   2.1579178      Node   113.64575     -0.94963830     +0.02211247             
    e   0.5142481      Incl.   12.00124     -0.31080344     -0.19333959             
    P   3.17           H   23.63          G   0.15           U   9                  
    Residuals in seconds of arc
    230630 G96  0.1-  0.2+    230706 L87  0.2+  0.1-    230706 M49  0.4+  0.4-
    230630 G96  0.1-  0.2-    230706 204  0.3+  0.3+    230706 204  0.0   0.4+
    230630 G96  0.2+  0.1+    230706 J95  0.4-  0.3+    230706 M49  0.3+  0.1-
    230706 G96  0.3+  0.1-    230706 L01  0.5-  0.4+    230707 H36  0.2+  0.0
    230706 G96  0.1-  0.0     230706 M49  0.3+  0.1+    230707 H36  0.7+  0.8-
    230706 G96  0.4+  0.4-    230706 L01  0.1+  0.3-    230707 H36  0.6+  0.6-
    230706 G96  0.4-  0.4+    230706 J95  0.0   0.5+    230707 654  0.1-  0.0
    230706 I52  0.2+  0.0     230706 L01  0.1-  0.6-    230707 654  0.1+  0.1+
    230706 I52  0.0   0.1+    230706 L01  0.4-  0.4-    230707 U52  1.4+  0.5-
    230706 I52  0.3-  0.1-    230706 L01  0.2-  0.2-    230707 U52  0.8-  0.5-
    230706 L87  0.0   0.1-    230706 204  0.3-  0.2-
    230706 L87  0.1+  0.1-    230706 J95  0.2+  0.4-
    
    Ephemeris:
    2023 NB                  a,e,i = 2.16, 0.51, 12                  q = 1.0482
    Date    TT    R. A. (2000) Decl.     Delta      r    Elong.  Phase     V
    2023 06 07    13 46 13.4 +44 52 55   0.2042  1.0678    99.6    69.6    22.8
    ...
    2023 06 22    14 30 42.3 +39 46 56   0.1350  1.0485   100.1    72.6    21.9
    ...
    2023 06 30    15 16 54.6 +31 54 26   0.09894 1.0507   107.6    67.3    21.1
    ...
    2023 07 06    16 09 15.1 +19 33 56   0.07680 1.0582   120.9    55.5    20.2
    2023 07 07    16 19 42.7 +16 40 12   0.07398 1.0599   124.1    52.6    20.0
    2023 07 08    16 30 39.6 +13 30 33   0.07152 1.0617   127.5    49.4    19.9
    ...
    2023 07 14    17 44 19.0 -09 17 42   0.06647 1.0755   151.5    26.8    19.1
    ...
    2023 07 22    19 22 35.4 -33 23 48   0.08743 1.1005   164.2    14.5    19.4
    ...
    2023 08 06    21 09 59.4 -45 22 01   0.1685  1.1653   151.5    24.5    21.2
    
    M. P. C. Staff               (C) Copyright 2023 MPC           M.P.E.C. 2023-N19
    


    Read MPEC 2023-N18 Read MPEC 2023-N20


    MPEC number:

    Enter an MPEC number in one of the following forms:

    • 1997-B01 (the full form)
    • J97B01 (the packed version of the full form)
    • B01 (the abbreviated form)